Regional Weather Roundup
Issued by NWS

Home | Current Version | Previous Version | Graphics & Text | Print | Product List | Glossary On
Versions: 1 2 3 4 5 6 7 8 9 10 11 12 13 14 15 16 17 18 19 20 21 22 23 24 25 26 27 28 29 30 31 32 33 34 35 36 37 38 39 40 41 42 43 44 45 46 47 48 49 50
000
ASUS43 KIND 110759
RWRIN

WEATHER ROUNDUP FOR INDIANA
NATIONAL WEATHER SERVICE INDIANAPOLIS IN
300 AM EST MON DEC 11 2017

NOTE: "FAIR" INDICATES FEW OR NO CLOUDS BELOW 12,000 FEET WITH NO
SIGNIFICANT WEATHER AND/OR OBSTRUCTIONS TO VISIBILITY.

* - STATION DOES NOT REPORT WEATHER SUCH AS PRECIPITATION OR FOG.

+ - STATION NOT QUALITY CONTROLLED BY THE NATIONAL WEATHER SERVICE.
    USE DATA WITH CAUTION...ESPECIALLY DEWPOINT AND RELATIVE
    HUMIDITY OBSERVATIONS.

INZ001>003-010>013-019-020-110900-
NORTHWEST INDIANA

CITY           SKY/WX    TMP DP  RH WIND       PRES   REMARKS
MONTICELLO +   CLEAR     20  17  87 CALM      30.07S

$$

LMZ046-743>745-110900-
SOUTHERN LAKE MICHIGAN

STATION/POSITION TIME  TEMP    WIND        PRES    WAVE
                       AIR SEA DIR/SP/G            HT
                 (UTC) (F)     (DEG/KT/KT) (MB)    (FT)
BURNS HARBOR     0740   31     290/  4/  7 1018.3S
MICHIGAN CITY    0730   31     280/  8/  9   N/A

$$

INZ004-005-014>016-021>024-110900-
NORTH CENTRAL INDIANA

CITY           SKY/WX    TMP DP  RH WIND       PRES   REMARKS
GOSHEN         CLOUDY    28  22  78 W5        30.04R WCI  23
PERU/GRISSOM   CLOUDY    21  19  89 W8        30.05F WCI  12
SOUTH BEND     CLOUDY    27  22  81 SW5       30.04F WCI  22

$$

INZ006>009-017-018-025>027-110900-
NORTHEAST INDIANA

CITY           SKY/WX    TMP DP  RH WIND       PRES   REMARKS
FORT WAYNE     PTCLDY    25  20  81 W7        30.05R WCI  17
KENDALLVILLE + CLOUDY    28  23  82 CALM      30.03S

$$

INZ028-029-035-036-043>045-051>053-110900-
WEST CENTRAL INDIANA

CITY           SKY/WX    TMP DP  RH WIND       PRES   REMARKS
LAFAYETTE      CLOUDY    20  18  92 CALM      30.09S
TERRE HAUTE    CLEAR     21  17  84 CALM      30.10F

$$

INZ030>032-037>040-046>048-054>057-064-065-110900-
CENTRAL INDIANA

CITY           SKY/WX    TMP DP  RH WIND       PRES   REMARKS
INDIANAPOLIS   CLEAR     24  19  81 W5        30.09S WCI  18
-EAGLE CREEK   CLEAR     25  19  78 NW6       30.07F WCI  18
KOKOMO +       CLEAR     21  18  88 SW7       30.07S WCI  12
MT COMFORT *+  CLEAR     19  19 100 CALM      30.08R
SHELBYVILLE    CLEAR     23  18  81 W3        30.08S

$$

INZ033-034-041-042-049-050-058-059-110900-
EAST CENTRAL INDIANA

CITY           SKY/WX    TMP DP  RH WIND       PRES   REMARKS
MUNCIE         MOCLDY    29  20  69 W3        30.06S

$$

INZ060-061-067>069-081>083-085>088-110900-
SOUTHWEST INDIANA

CITY           SKY/WX    TMP DP  RH WIND       PRES   REMARKS
EVANSVILLE     CLEAR     27  25  92 CALM      30.14S
HUNTINGBURG +  CLEAR     27  23  85 CALM      30.13S

$$

INZ062-063-066-070>080-084-089>092-110900-
SOUTH CENTRAL AND SOUTHEAST INDIANA

CITY           SKY/WX    TMP DP  RH WIND       PRES   REMARKS
BLOOMINGTON    CLEAR     24  18  77 CALM      30.09F
SEYMOUR +      CLEAR     27  21  80 CALM      30.11S

$$





USA.gov is the U.S. government's official web portal to all federal, state and local government web resources and services.